Location: Street
(51.1247°N, 2.7429°W)
Time: 14:35:46
(UTC+01:00)

N. Korean satellite - Visible Passes

Search period start: 04 October 2022 00:00
Search period end: 14 October 2022 00:00
Orbit: 426 x 468 km, 97.3° (Epoch: 03 October)

Date Brightness Start Highest point End Pass type
(mag) Time Alt. Az. Time Alt. Az. Time Alt. Az.
04 Oct 9.6 05:36:54 10° NE 05:38:56 15° E 05:40:57 10° SE visible
05 Oct 6.6 06:32:39 10° NNE 06:35:56 72° ESE 06:39:10 10° S visible
06 Oct 8.8 05:56:59 10° NE 05:59:47 26° E 06:02:34 10° SSE visible
07 Oct 10.1 05:22:46 10° ENE 05:23:24 10° E 05:24:03 10° E visible
08 Oct 7.6 06:17:11 10° NNE 06:20:21 44° E 06:23:29 10° S visible
09 Oct 9.5 05:41:41 10° NE 05:43:58 17° E 05:46:14 10° SE visible
10 Oct 6.4 06:37:19 10° NNE 06:40:37 83° ESE 06:43:53 10° SSW visible
11 Oct 8.6 06:01:19 10° NE 06:04:13 29° E 06:07:07 10° SSE visible
12 Oct 9.9 05:26:20 10° ENE 05:27:35 12° E 05:28:50 10° ESE visible
13 Oct 7.4 06:20:58 10° NNE 06:24:11 50° E 06:27:24 10° S visible
